| time (UTC) | temp F | wind direction | speed MPH | gust MPH | rain 1hr in | rain 24hr in | rain mn in | humidity % | barometer mb |
| 20260503183834 | 61 | 181 | 6.0 | 12.0 | 0.00 | 0.00 | 0.00 | 66 | 1011.9 |
| 20260503183710 | 61 | 234 | 4.0 | 12.0 | 0.00 | 0.00 | 0.00 | 65 | 1011.9 |
| 20260503183704 | 62 | 209 | 4.0 | 11.0 | 0.00 | 0.00 | 0.00 | 66 | 1011.9 |
| 20260503182203 | 61 | 238 | 6.0 | 11.0 | 0.00 | 0.00 | 0.00 | 65 | 1011.9 |
| 20260503181704 | 61 | 180 | 5.0 | 11.0 | 0.00 | 0.00 | 0.00 | 66 | 1011.9 |
| 20260503181207 | 60 | 220 | 6.0 | 12.0 | 0.00 | 0.00 | 0.00 | 68 | 1012.0 |
| 20260503181202 | 60 | 185 | 6.0 | 12.0 | 0.00 | 0.00 | 0.00 | 67 | 1011.9 |
| 20260503180208 | 60 | 218 | 3.0 | 6.0 | 0.00 | 0.00 | 0.00 | 70 | 1012.0 |
| 20260503180204 | 60 | 217 | 4.0 | 12.0 | 0.00 | 0.00 | 0.00 | 68 | 1012.0 |
| 20260503175202 | 60 | 259 | 3.0 | 8.0 | 0.00 | 0.00 | 0.00 | 71 | 1011.9 |
| 20260503174703 | 59 | 246 | 4.0 | 8.0 | 0.00 | 0.00 | 0.00 | 71 | 1011.9 |
| 20260503174208 | 59 | 225 | 4.0 | 9.0 | 0.00 | 0.00 | 0.00 | 71 | 1012.0 |
| 20260503174202 | 59 | 232 | 4.0 | 9.0 | 0.00 | 0.00 | 0.00 | 71 | 1012.0 |
| 20260503173203 | 58 | 226 | 4.0 | 10.0 | 0.00 | 0.00 | 0.00 | 72 | 1011.9 |
| 20260503172702 | 58 | 232 | 4.0 | 10.0 | 0.00 | 0.00 | 0.00 | 72 | 1011.9 |
| 20260503172202 | 58 | 240 | 5.0 | 9.0 | 0.00 | 0.00 | 0.00 | 72 | 1012.0 |
| 20260503171702 | 58 | 223 | 6.0 | 11.0 | 0.00 | 0.00 | 0.00 | 72 | 1011.9 |
| 20260503171201 | 58 | 235 | 5.0 | 12.0 | 0.00 | 0.00 | 0.00 | 74 | 1012.0 |
| 20260503170700 | 59 | 227 | 3.0 | 12.0 | 0.00 | 0.00 | 0.00 | 75 | 1011.9 |
| 20260503170201 | 59 | 298 | 1.0 | 4.0 | 0.00 | 0.00 | 0.00 | 77 | 1011.9 |
| 20260503160156 | 58 | 169 | 2.0 | 6.0 | 0.00 | 0.00 | 0.00 | 75 | 1011.8 |
| 20260503150649 | 57 | 150 | 2.0 | 5.0 | 0.00 | 0.00 | 0.00 | 74 | 1011.4 |
| 20260503150153 | 57 | 172 | 2.0 | 5.0 | 0.00 | 0.00 | 0.00 | 73 | 1011.3 |
| 20260503150148 | 57 | 173 | 3.0 | 5.0 | 0.00 | 0.00 | 0.00 | 74 | 1011.4 |
| 20260503140146 | 56 | 237 | 3.0 | 4.0 | 0.00 | 0.00 | 0.00 | 75 | 1010.7 |
| 20260503131145 | 55 | 266 | 3.0 | 8.0 | 0.00 | 0.00 | 0.00 | 78 | 1010.2 |
| 20260503130648 | 55 | 242 | 3.0 | 8.0 | 0.00 | 0.00 | 0.00 | 78 | 1010.1 |
| 20260503130643 | 55 | 238 | 3.0 | 8.0 | 0.00 | 0.00 | 0.00 | 78 | 1010.0 |
| 20260503130258 | 55 | 244 | 2.0 | 7.0 | 0.00 | 0.00 | 0.00 | 78 | 1010.0 |
| 20260503120142 | 55 | 267 | 3.0 | 7.0 | 0.00 | 0.00 | 0.00 | 79 | 1009.8 |
| 20260503110643 | 55 | 240 | 3.0 | 7.0 | 0.00 | 0.00 | 0.00 | 79 | 1010.1 |
| 20260503110143 | 55 | 278 | 3.0 | 7.0 | 0.00 | 0.00 | 0.00 | 80 | 1010.1 |
| 20260503100135 | 55 | 287 | 3.0 | 7.0 | 0.00 | 0.00 | 0.00 | 79 | 1010.0 |
| 20260503090134 | 55 | 232 | 3.0 | 6.0 | 0.00 | 0.00 | 0.00 | 79 | 1010.2 |
| 20260503081134 | 55 | 331 | 3.0 | 8.0 | 0.00 | 0.00 | 0.00 | 79 | 1010.7 |
| 20260503080634 | 56 | 290 | 3.0 | 6.0 | 0.00 | 0.00 | 0.00 | 79 | 1010.7 |
| 20260503080133 | 56 | 304 | 3.0 | 6.0 | 0.00 | 0.00 | 0.00 | 79 | 1010.7 |
| 20260503072131 | 56 | 308 | 2.0 | 6.0 | 0.00 | 0.00 | 0.00 | 78 | 1010.9 |
| 20260503071632 | 56 | 302 | 2.0 | 6.0 | 0.00 | 0.00 | 0.00 | 78 | 1010.9 |
| 20260503071132 | 56 | 301 | 2.0 | 6.0 | 0.00 | 0.00 | 0.00 | 78 | 1010.9 |
| 20260503070631 | 56 | 292 | 3.0 | 6.0 | 0.00 | 0.00 | 0.00 | 78 | 1010.9 |
| 20260503070132 | 56 | 322 | 3.0 | 6.0 | 0.00 | 0.00 | 0.00 | 79 | 1010.8 |
| 20260503060134 | 56 | 304 | 3.0 | 9.0 | 0.00 | 0.00 | 0.00 | 77 | 1011.0 |
| 20260503060128 | 56 | 304 | 4.0 | 10.0 | 0.00 | 0.00 | 0.00 | 77 | 1011.0 |
| 20260503055128 | 56 | 9 | 2.0 | 9.0 | 0.00 | 0.00 | 0.00 | 77 | 1011.1 |
| 20260503054628 | 56 | 321 | 2.0 | 5.0 | 0.00 | 0.00 | 0.00 | 77 | 1011.1 |
| 20260503054127 | 56 | 326 | 3.0 | 9.0 | 0.00 | 0.00 | 0.00 | 77 | 1011.2 |
| 20260503053627 | 56 | 287 | 3.0 | 9.0 | 0.00 | 0.00 | 0.00 | 77 | 1011.2 |
| 20260503053127 | 56 | 325 | 3.0 | 8.0 | 0.00 | 0.00 | 0.00 | 77 | 1011.2 |
| 20260503052627 | 56 | 297 | 3.0 | 7.0 | 0.00 | 0.00 | 0.00 | 77 | 1011.2 |
| 20260503052127 | 56 | 320 | 3.0 | 8.0 | 0.00 | 0.00 | 0.00 | 77 | 1011.2 |
| 20260503051626 | 56 | 309 | 4.0 | 8.0 | 0.00 | 0.00 | 0.00 | 77 | 1011.2 |
| 20260503051126 | 56 | 312 | 4.0 | 8.0 | 0.00 | 0.00 | 0.00 | 77 | 1011.2 |
| 20260503050627 | 56 | 303 | 4.0 | 11.0 | 0.00 | 0.00 | 0.00 | 76 | 1011.2 |
| 20260503050127 | 57 | 314 | 5.0 | 11.0 | 0.00 | 0.00 | 0.00 | 77 | 1011.1 |
| 20260503045625 | 57 | 0 | 5.0 | 11.0 | 0.00 | 0.00 | 0.00 | 76 | 1011.1 |
| 20260503045125 | 57 | 302 | 5.0 | 11.0 | 0.00 | 0.00 | 0.00 | 76 | 1011.0 |
| 20260503044622 | 57 | 355 | 5.0 | 10.0 | 0.00 | 0.00 | 0.00 | 76 | 1011.0 |
| 20260503044124 | 57 | 330 | 5.0 | 10.0 | 0.00 | 0.00 | 0.00 | 76 | 1011.0 |
| 20260503043623 | 57 | 30 | 5.0 | 13.0 | 0.00 | 0.00 | 0.00 | 76 | 1010.9 |
| 20260503043122 | 57 | 333 | 5.0 | 13.0 | 0.00 | 0.00 | 0.00 | 76 | 1010.9 |
| 20260503042623 | 57 | 329 | 4.0 | 10.0 | 0.00 | 0.00 | 0.00 | 76 | 1010.8 |
| 20260503042122 | 57 | 296 | 5.0 | 12.0 | 0.00 | 0.00 | 0.00 | 76 | 1010.9 |
| 20260503041622 | 57 | 355 | 5.0 | 12.0 | 0.00 | 0.00 | 0.00 | 76 | 1010.8 |
| 20260503041123 | 57 | 323 | 4.0 | 12.0 | 0.00 | 0.00 | 0.00 | 76 | 1010.7 |
| 20260503040628 | 57 | 12 | 5.0 | 11.0 | 0.00 | 0.00 | 0.00 | 76 | 1010.6 |
| 20260503040622 | 57 | 322 | 4.0 | 10.0 | 0.00 | 0.00 | 0.00 | 76 | 1010.7 |
| 20260503035623 | 57 | 25 | 4.0 | 11.0 | 0.00 | 0.00 | 0.00 | 76 | 1010.6 |
| 20260503035121 | 57 | 355 | 4.0 | 10.0 | 0.00 | 0.00 | 0.00 | 76 | 1010.6 |
| 20260503034624 | 57 | 5 | 4.0 | 9.0 | 0.00 | 0.00 | 0.00 | 76 | 1010.4 |
| 20260503034121 | 57 | 355 | 4.0 | 12.0 | 0.00 | 0.00 | 0.00 | 75 | 1010.4 |
| 20260503033625 | 57 | 42 | 5.0 | 11.0 | 0.00 | 0.00 | 0.00 | 74 | 1010.3 |
| 20260503033620 | 57 | 14 | 4.0 | 12.0 | 0.00 | 0.00 | 0.00 | 75 | 1010.4 |
| 20260503033121 | 57 | 355 | 5.0 | 11.0 | 0.00 | 0.00 | 0.00 | 75 | 1010.4 |
| 20260503032119 | 57 | 0 | 5.0 | 11.0 | 0.00 | 0.00 | 0.00 | 74 | 1010.3 |
| 20260503031617 | 57 | 355 | 4.0 | 10.0 | 0.00 | 0.00 | 0.00 | 74 | 1010.2 |
| 20260503031121 | 58 | 20 | 4.0 | 9.0 | 0.00 | 0.00 | 0.00 | 73 | 1010.1 |
| 20260503031116 | 58 | 330 | 4.0 | 9.0 | 0.00 | 0.00 | 0.00 | 73 | 1010.2 |
| 20260503030734 | 58 | 5 | 6.0 | 12.0 | 0.00 | 0.00 | 0.00 | 73 | 1009.9 |
| 20260503030221 | 58 | 325 | 5.0 | 11.0 | 0.00 | 0.00 | 0.00 | 73 | 1010.0 |
| 20260503025114 | 58 | 19 | 6.0 | 12.0 | 0.00 | 0.00 | 0.00 | 73 | 1009.8 |
| 20260503024615 | 58 | 355 | 6.0 | 12.0 | 0.00 | 0.00 | 0.00 | 73 | 1009.8 |
| 20260503024112 | 58 | 38 | 5.0 | 12.0 | 0.00 | 0.00 | 0.00 | 73 | 1009.8 |
| 20260503023617 | 59 | 9 | 6.0 | 12.0 | 0.00 | 0.00 | 0.00 | 72 | 1009.7 |
| 20260503023611 | 58 | 35 | 6.0 | 12.0 | 0.00 | 0.00 | 0.00 | 73 | 1009.7 |
| 20260503022613 | 59 | 345 | 5.0 | 11.0 | 0.00 | 0.00 | 0.00 | 72 | 1009.7 |
| 20260503022112 | 59 | 24 | 6.0 | 12.0 | 0.00 | 0.00 | 0.00 | 72 | 1009.6 |
| 20260503021612 | 59 | 355 | 6.0 | 12.0 | 0.00 | 0.00 | 0.00 | 73 | 1009.6 |
| 20260503021117 | 60 | 18 | 8.0 | 14.0 | 0.00 | 0.00 | 0.00 | 73 | 1009.6 |
| 20260503021112 | 60 | 44 | 7.0 | 13.0 | 0.00 | 0.00 | 0.00 | 73 | 1009.6 |
| 20260503020730 | 60 | 17 | 7.0 | 14.0 | 0.00 | 0.00 | 0.00 | 72 | 1009.6 |
| 20260503015612 | 60 | 19 | 6.0 | 14.0 | 0.00 | 0.00 | 0.00 | 72 | 1009.5 |
| 20260503015112 | 60 | 46 | 6.0 | 14.0 | 0.00 | 0.00 | 0.00 | 73 | 1009.6 |
| 20260503014613 | 61 | 9 | 6.0 | 12.0 | 0.00 | 0.00 | 0.00 | 72 | 1009.6 |
| 20260503014116 | 61 | 335 | 6.0 | 12.0 | 0.00 | 0.00 | 0.00 | 73 | 1009.6 |
| 20260503014111 | 61 | 5 | 6.0 | 12.0 | 0.00 | 0.00 | 0.00 | 72 | 1009.6 |
| 20260503013112 | 61 | 349 | 7.0 | 13.0 | 0.00 | 0.00 | 0.00 | 72 | 1009.6 |
| 20260503012617 | 61 | 19 | 7.0 | 15.0 | 0.00 | 0.00 | 0.00 | 71 | 1009.6 |
| 20260503012613 | 61 | 18 | 7.0 | 15.0 | 0.00 | 0.00 | 0.00 | 72 | 1009.7 |
| 20260503011611 | 62 | 28 | 7.0 | 14.0 | 0.00 | 0.00 | 0.00 | 71 | 1009.6 |
| 20260503011111 | 62 | 46 | 7.0 | 14.0 | 0.00 | 0.00 | 0.00 | 71 | 1009.6 |
| 20260503010613 | 62 | 348 | 7.0 | 14.0 | 0.00 | 0.00 | 0.00 | 71 | 1009.7 |
| 20260503010112 | 62 | 14 | 8.0 | 15.0 | 0.00 | 0.00 | 0.00 | 71 | 1009.7 |
| 20260503005613 | 62 | 36 | 7.0 | 15.0 | 0.00 | 0.00 | 0.00 | 70 | 1009.6 |
| 20260503005116 | 63 | 0 | 6.0 | 14.0 | 0.00 | 0.00 | 0.00 | 70 | 1009.6 |
| 20260503005111 | 63 | 36 | 5.0 | 12.0 | 0.00 | 0.00 | 0.00 | 69 | 1009.6 |
| 20260503004111 | 63 | 349 | 7.0 | 14.0 | 0.00 | 0.00 | 0.00 | 70 | 1009.6 |
| 20260503003611 | 63 | 44 | 7.0 | 13.0 | 0.00 | 0.00 | 0.00 | 70 | 1009.6 |
| 20260503003112 | 63 | 344 | 7.0 | 14.0 | 0.00 | 0.00 | 0.00 | 70 | 1009.6 |
| 20260503002611 | 64 | 22 | 6.0 | 16.0 | 0.00 | 0.00 | 0.00 | 68 | 1009.7 |
| 20260503002112 | 64 | 5 | 6.0 | 16.0 | 0.00 | 0.00 | 0.00 | 69 | 1009.6 |
| 20260503001612 | 64 | 326 | 7.0 | 13.0 | 0.00 | 0.00 | 0.00 | 70 | 1009.7 |
| 20260503001111 | 64 | 350 | 8.0 | 16.0 | 0.00 | 0.00 | 0.00 | 70 | 1009.7 |
| 20260503000613 | 64 | 27 | 7.0 | 16.0 | 0.00 | 0.00 | 0.00 | 68 | 1009.8 |
| 20260503000114 | 65 | 29 | 7.0 | 15.0 | 0.00 | 0.00 | 0.00 | 67 | 1009.7 |
| 20260502235612 | 65 | 12 | 7.0 | 12.0 | 0.00 | 0.00 | 0.00 | 66 | 1009.7 |
| 20260502235128 | 65 | 330 | 6.0 | 14.0 | 0.00 | 0.00 | 0.00 | 66 | 1009.8 |
| 20260502235114 | 65 | 327 | 6.0 | 14.0 | 0.00 | 0.00 | 0.00 | 66 | 1009.8 |
| 20260502234616 | 66 | 22 | 7.0 | 14.0 | 0.00 | 0.00 | 0.00 | 67 | 1009.8 |
| 20260502234226 | 66 | 343 | 7.0 | 15.0 | 0.00 | 0.00 | 0.00 | 67 | 1010.0 |
| 20260502233608 | 66 | 10 | 6.0 | 12.0 | 0.00 | 0.00 | 0.00 | 66 | 1009.8 |
| 20260502233107 | 65 | 335 | 7.0 | 15.0 | 0.00 | 0.00 | 0.00 | 67 | 1010.0 |
| 20260502232115 | 66 | 336 | 8.0 | 16.0 | 0.00 | 0.00 | 0.00 | 67 | 1010.1 |
| 20260502232107 | 66 | 9 | 7.0 | 14.0 | 0.00 | 0.00 | 0.00 | 68 | 1010.0 |
| 20260502231607 | 65 | 320 | 8.0 | 16.0 | 0.00 | 0.00 | 0.00 | 68 | 1010.1 |
| 20260502231225 | 65 | 26 | 7.0 | 15.0 | 0.00 | 0.00 | 0.00 | 66 | 1010.2 |
| 20260502230108 | 66 | 30 | 6.0 | 14.0 | 0.00 | 0.00 | 0.00 | 66 | 1010.3 |
| 20260502225607 | 66 | 12 | 7.0 | 14.0 | 0.00 | 0.00 | 0.00 | 67 | 1010.4 |
| 20260502225108 | 66 | 21 | 7.0 | 13.0 | 0.00 | 0.00 | 0.00 | 66 | 1010.4 |
| 20260502224606 | 66 | 26 | 7.0 | 14.0 | 0.00 | 0.00 | 0.00 | 65 | 1010.5 |
| 20260502224113 | 66 | 22 | 7.0 | 14.0 | 0.00 | 0.00 | 0.00 | 66 | 1010.6 |
| 20260502224107 | 67 | 350 | 7.0 | 14.0 | 0.00 | 0.00 | 0.00 | 66 | 1010.6 |
| 20260502223105 | 66 | 26 | 7.0 | 14.0 | 0.00 | 0.00 | 0.00 | 67 | 1010.6 |
| 20260502222605 | 66 | 9 | 7.0 | 14.0 | 0.00 | 0.00 | 0.00 | 67 | 1010.8 |
| 20260502222110 | 67 | 60 | 6.0 | 12.0 | 0.00 | 0.00 | 0.00 | 66 | 1011.1 |
| 20260502222106 | 67 | 355 | 6.0 | 14.0 | 0.00 | 0.00 | 0.00 | 66 | 1010.9 |
| 20260502221105 | 66 | 319 | 8.0 | 16.0 | 0.00 | 0.00 | 0.00 | 67 | 1011.1 |
| 20260502220611 | 68 | 0 | 5.0 | 11.0 | 0.00 | 0.00 | 0.00 | 66 | 1011.1 |
| 20260502220605 | 67 | 34 | 7.0 | 16.0 | 0.00 | 0.00 | 0.00 | 65 | 1011.1 |
| 20260502215605 | 68 | 5 | 6.0 | 12.0 | 0.00 | 0.00 | 0.00 | 66 | 1011.2 |
| 20260502215106 | 67 | 14 | 7.0 | 13.0 | 0.00 | 0.00 | 0.00 | 66 | 1011.2 |
| 20260502214605 | 66 | 340 | 7.0 | 13.0 | 0.00 | 0.00 | 0.00 | 67 | 1011.2 |
| 20260502214104 | 67 | 314 | 6.0 | 15.0 | 0.00 | 0.00 | 0.00 | 66 | 1011.3 |
| 20260502213603 | 68 | 333 | 6.0 | 15.0 | 0.00 | 0.00 | 0.00 | 67 | 1011.4 |
| 20260502213101 | 66 | 350 | 6.0 | 13.0 | 0.00 | 0.00 | 0.00 | 68 | 1011.3 |
| 20260502212601 | 66 | 25 | 6.0 | 13.0 | 0.00 | 0.00 | 0.00 | 68 | 1011.4 |
| 20260502212107 | 67 | 24 | 6.0 | 14.0 | 0.00 | 0.00 | 0.00 | 66 | 1011.4 |
| 20260502212102 | 67 | 339 | 6.0 | 14.0 | 0.00 | 0.00 | 0.00 | 67 | 1011.3 |
| 20260502211107 | 67 | 37 | 6.0 | 13.0 | 0.00 | 0.00 | 0.00 | 67 | 1011.5 |
| 20260502211101 | 68 | 355 | 6.0 | 11.0 | 0.00 | 0.00 | 0.00 | 65 | 1011.5 |
| 20260502210719 | 67 | 0 | 6.0 | 12.0 | 0.00 | 0.00 | 0.00 | 68 | 1011.6 |
| 20260502205718 | 66 | 33 | 6.0 | 12.0 | 0.00 | 0.00 | 0.00 | 68 | 1011.7 |
| 20260502204559 | 66 | 51 | 6.0 | 12.0 | 0.00 | 0.00 | 0.00 | 68 | 1011.8 |
| 20260502204104 | 66 | 336 | 5.0 | 12.0 | 0.00 | 0.00 | 0.00 | 67 | 1011.9 |
| 20260502204100 | 66 | 16 | 5.0 | 12.0 | 0.00 | 0.00 | 0.00 | 68 | 1011.8 |
| 20260502203059 | 67 | 17 | 4.0 | 11.0 | 0.00 | 0.00 | 0.00 | 66 | 1011.9 |
| 20260502202600 | 66 | 12 | 4.0 | 9.0 | 0.00 | 0.00 | 0.00 | 69 | 1011.9 |
| 20260502202059 | 66 | 355 | 4.0 | 10.0 | 0.00 | 0.00 | 0.00 | 68 | 1011.9 |
| 20260502201559 | 65 | 14 | 5.0 | 10.0 | 0.00 | 0.00 | 0.00 | 68 | 1012.1 |
| 20260502201059 | 66 | 30 | 4.0 | 11.0 | 0.00 | 0.00 | 0.00 | 69 | 1012.1 |
| 20260502200600 | 65 | 65 | 4.0 | 11.0 | 0.00 | 0.00 | 0.00 | 69 | 1012.2 |
| 20260502200057 | 66 | 54 | 5.0 | 11.0 | 0.00 | 0.00 | 0.00 | 68 | 1012.3 |
| 20260502195058 | 66 | 73 | 3.0 | 9.0 | 0.00 | 0.00 | 0.00 | 68 | 1012.3 |
| 20260502194557 | 65 | 71 | 3.0 | 9.0 | 0.00 | 0.00 | 0.00 | 71 | 1012.4 |
| 20260502194104 | 65 | 71 | 4.0 | 7.0 | 0.00 | 0.00 | 0.00 | 70 | 1012.4 |
| 20260502194059 | 64 | 355 | 4.0 | 7.0 | 0.00 | 0.00 | 0.00 | 71 | 1012.4 |
| 20260502193715 | 65 | 76 | 3.0 | 9.0 | 0.00 | 0.00 | 0.00 | 71 | 1012.4 |
| 20260502193059 | 64 | 328 | 4.0 | 9.0 | 0.00 | 0.00 | 0.00 | 71 | 1012.4 |
| 20260502192057 | 64 | 57 | 3.0 | 8.0 | 0.00 | 0.00 | 0.00 | 74 | 1012.5 |
| 20260502191557 | 63 | 87 | 3.0 | 7.0 | 0.00 | 0.00 | 0.00 | 72 | 1012.6 |
| 20260502191057 | 64 | 58 | 3.0 | 7.0 | 0.00 | 0.00 | 0.00 | 74 | 1012.6 |
| 20260502190555 | 63 | 32 | 3.0 | 7.0 | 0.00 | 0.00 | 0.00 | 76 | 1012.7 |
| 20260502190056 | 62 | 348 | 2.0 | 6.0 | 0.00 | 0.00 | 0.00 | 75 | 1012.7 |
| 20260502185600 | 62 | 18 | 3.0 | 6.0 | 0.00 | 0.00 | 0.00 | 75 | 1012.7 |
| 20260502185555 | 62 | 42 | 2.0 | 6.0 | 0.00 | 0.00 | 0.00 | 75 | 1012.7 |
| 20260502185217 | 62 | 14 | 2.0 | 5.0 | 0.00 | 0.00 | 0.00 | 75 | 1012.7 |
| 20260502185213 | 62 | 332 | 3.0 | 6.0 | 0.00 | 0.00 | 0.00 | 75 | 1012.7 |